Turksat 5B

operational
NORAD ID: 50212 Int'l Des: 2021-126 Owner: TURKS Country: TR
HEOCIRCULARGSO

Über Turksat 5B

Beschreibung wird geladen...

Live-Position

3D-Globus wird geladen...

Nächste Überflüge

Höhenverlauf

Altitude vs Time

uPlot chart will show altitude changes over time

Zweizeiliger Elementsatz

1 50212U 21126A 26062.62128976 .00000132 00000-0 00000-0 0 9995
2 50212 0.0759 327.8011 0005495 1.0461 98.1614 1.00272761 15236
Epoch: 3. März 2026 • Age: 28 hours

Aktueller Status

Höhe 35774.4 km
Geschwindigkeit 3.08 km/s
Subsatellitenpunkt -0.04°S, 41.93°E
Startdatum 19. Dez. 2021
Alter 4.2 years
Typ other

Technische Details

Klassifizierung Payload
Masse 4500.00 kg
Trockenmasse 3500.00 kg
Gesamtmasse 4500.00 kg
Länge 4.50 m
Durchmesser 3.00 m
Spannweite 34.00 m
Form Box + 2 Pan
Hersteller ADSB
Bus-Typ Eurostar 3000EOR
Phasenstatus In Orbit
Besitzer/Staat TURKS/TR

Große Konstellationen

Loading constellations...